Вернуться в каталог

OPS 4682 DEB

АктивенPO
NORAD 51508·DEBRIS·🇺🇸 United States

Запущен Apr 3, 1965 с Vandenberg Space Force Base

Loading…

Ближайшие Пролёты (ближайшие 24 часа)

TLE

СвежийSource: Space-Track

Эпоха: Sep 13, 2026, 03:26 UTC

1 51508U 65027GU  26256.14349863  .00000196  00000-0  64250-3 0  9994
2 51508  90.2602  18.2460 0028623 175.8549 304.7272 12.97978259615603

Отслеживайте OPS 4682 DEB в реальном времени с AllMySat

Download on the App Store